Regional Weather Roundup
Issued by NWS Portland, ME

Home | Current Version | Previous Version | Text Only | Print | Product List | Glossary On
Versions: 1 2 3 4 5 6 7 8 9 10 11 12 13 14 15 16 17 18 19 20 21 22 23 24 25 26 27 28 29 30 31 32 33 34 35 36 37 38 39 40 41 42 43 44 45 46 47 48 49 50
000
ASUS41 KGYX 221810
RWRGYX
WEATHER ROUNDUP FOR MAINE AND NEW HAMPSHIRE
NATIONAL WEATHER SERVICE GRAY ME
100 PM EST WED FEB 22 2017

MEZ002-005-006-010-012-015-018-020-021-024-026-027-029-221900-
MAINE

CITY           SKY/WX    TMP DP  RH WIND       PRES   REMARKS
PORTLAND       MOSUNNY   48  25  40 CALM      29.92F
6HR MIN TEMP:  32; 6HR MAX TEMP:  49;

SANFORD        MOSUNNY   50  30  46 CALM      29.91F
BAR HARBOR     PTSUNNY   42  29  59 S8        29.92F
WISCASSET      MOSUNNY   52  28  39 CALM      29.92F
6HR MIN TEMP:  34; 6HR MAX TEMP:  52;

ROCKLAND       MOSUNNY   44  30  57 SE5       29.91F
FRYEBURG       MOSUNNY   47  30  51 E6        29.90F
6HR MIN TEMP:  25; 6HR MAX TEMP:  48;

LEWISTONAUBURN MOSUNNY   51  29  42 CALM      29.91F
AUGUSTA        MOSUNNY   46  29  51 SE3       29.91F
6HR MIN TEMP:  33; 6HR MAX TEMP:  46;

WATERVILLE     MOSUNNY   47  28  47 CALM      29.89F
BANGOR         PTSUNNY   43  29  57 CALM      29.91F
6HR MIN TEMP:  31; 6HR MAX TEMP:  43;

GREENVILLE       N/A     44  32  62 NW9       29.86S
6HR MIN TEMP:  28; 6HR MAX TEMP:  45;

MILLINOCKET    MOSUNNY   46  30  53 NW7       29.90F
6HR MIN TEMP:  31; 6HR MAX TEMP:  46;

HOULTON        CLOUDY    43  32  65 NW9       29.88F
6HR MIN TEMP:  31; 6HR MAX TEMP:  43;

PRESQUE ISLE   CLOUDY    39  28  65 W10       29.89F
6HR MIN TEMP:  30; 6HR MAX TEMP:  40;

FRENCHVILLE    CLOUDY    38  27  64 W8        29.87R
6HR MIN TEMP:  28; 6HR MAX TEMP:  38;

CARIBOU        CLOUDY    42  28  57 VRB7      29.87F
6HR MIN TEMP:  30; 6HR MAX TEMP:  42;

$$

NHZ002-005-008-009-011-012-014-221900-
NEW HAMPSHIRE

CITY           SKY/WX    TMP DP  RH WIND       PRES   REMARKS
PORTSMOUTH     PTSUNNY   47  30  50 SE3       29.90F
ROCHESTER      MOSUNNY   51  32  48 N3        29.90F
6HR MIN TEMP:  30; 6HR MAX TEMP:  52;

NASHUA         PTSUNNY   55  37  50 CALM      29.92F
MANCHESTER     PTSUNNY   52  34  50 CALM      29.90F
6HR MIN TEMP:  36; 6HR MAX TEMP:  52;

CONCORD        MOSUNNY   50  32  50 CALM      29.91F
6HR MIN TEMP:  31; 6HR MAX TEMP:  51;

LACONIA        MOSUNNY   49  35  58 MISG      29.90F
PLYMOUTH       FAIR      51  34  53 CALM      29.90F
BERLIN         CLOUDY    46  33  60 N5        29.89F
6HR MIN TEMP:  34; 6HR MAX TEMP:  47;

WHITEFIELD     CLOUDY    47  32  56 CALM      29.90F
6HR MIN TEMP:  34; 6HR MAX TEMP:  47;

JAFFREY        SUNNY     54  37  52 CALM      29.90F
6HR MIN TEMP:  32; 6HR MAX TEMP:  54;

KEENE          SUNNY     52  36  54 CALM      29.91F
LEBANON        MOSUNNY   51  35  54 CALM      29.89F
6HR MIN TEMP:  35; 6HR MAX TEMP:  51;

MT WASHINGTON  MOSUNNY   34   7  32 W25         N/A
6HR MIN TEMP:  30; 6HR MAX TEMP:  38;

$$

VTZ005-007-008-221900-
VERMONT

CITY           SKY/WX    TMP DP  RH WIND       PRES   REMARKS
ST JOHNSBURY     N/A     47  28  47 MISG      29.89F
MONTPELIER     PTSUNNY   47  34  60 NE5       29.91F
BURLINGTON     MOSUNNY   50  34  54 S8        29.87F
$$

MAZ007-012-024-CTZ003-RIZ002-NYZ038-NYZ072-221900-
SOUTHERN NEW ENGLAND AND NY

CITY           SKY/WX    TMP DP  RH WIND       PRES   REMARKS
BOSTON         PTSUNNY   55  37  50 W6        29.92F
WORCESTER      CLOUDY    50  33  52 W9        29.92F
NANTUCKET      MOSUNNY   46  40  79 SW13      29.96F
PROVIDENCE     CLOUDY    55  35  47 W8        29.94F
HARTFORD       CLOUDY    50  34  54 S6        29.94F
ALBANY         MOSUNNY   53  33  46 SW8       29.93F
NEW YORK CITY  CLOUDY    54  37  52 N3        29.95F
$$

ANZ081-ANZ082-ANZ150-NHZ014-MEZ023>029-221900-
COASTAL MARINE OBSERVATIONS

STATION/POSITION TIME  TEMP    WIND        PRES    WAVE
                       AIR SEA DIR/SP/G            HT/PER
                 (UTC) (F)     (DEG/KT/KT) (MB)    (FT/S)
MOUNT DESERT ROC 1800   41                 1013.5F
MATINICUS ROCK   1800   39     250/  2/  3 1012.8F
ISLE OF SHOALS   1800   43     130/  4/  5 1012.9F
JEFFREYS LEDGE   1706      43                N/A     2/ 8
CASHES LEDGE BUO 1750   44 43              1013.9F   3/ 5
GEORGES BANK BUO 1750   41 43              1015.5F   5/10
$$

.............KEY..............
   WCI - WIND CHILL
   TC  - TEMPERATURE IN CELSIUS
   VSB - VISIBILITY IN MILES
   HX  - HEAT INDEX
   FAIR- INDICATES FEW OR NO CLOUDS BELOW 12,000 FT, WITH NO
         SIGNIFICANT WEATHER AND/OR OBSTRUCTIONS TO VISIBILITY.





USA.gov is the U.S. government's official web portal to all federal, state and local government web resources and services.